Change the Weather History Date:

Sunday, August 12, 2012

  Actual Average Record
Temperature  
Mean Temperature 76 °F -  
Max Temperature 88 °F 90 °F 104 °F (1954)
Min Temperature 64 °F 69 °F 60 °F (1967)
Cooling Degree Days 11    
Growing Degree Days 26 (Base 50)    
Moisture  
Dew Point 64 °F    
Average Humidity 70    
Maximum Humidity 93    
Minimum Humidity 39    
Precipitation  
Precipitation 0.00 in - - ()
Sea Level Pressure  
Sea Level Pressure 30.00 in    
Wind  
Wind Speed 2 mph (North)    
Max Wind Speed 8 mph    
Max Gust Speed -    
Visibility 10 miles    
Events      
Averages and records for this station are not official NWS values.
T = Trace of Precipitation, MM = Missing Value Source: NWS Daily Summary

Daily Weather History Graph

Daily Weather History Graph

Search for Another Location

Airport or City:

Trip Planner

Search our weather history database for the weather conditions in past years. The results will help you decide how hot, cold, wet, or windy it might be!

Date:

Astronomy

Aug. 12, 2012 Rise Set
Actual Time 6:09 AM CDT 7:32 PM CDT
Civil Twilight 5:43 AM CDT 7:58 PM CDT
Nautical Twilight 5:12 AM CDT 8:29 PM CDT
Astronomical Twilight 4:40 AM CDT 9:01 PM CDT
Moon 1:29 AM CDT (8/12) 3:49 PM CDT (8/12)
Length of Visible Light 14h 14m
Length of Day
13h 23m
Waning Crescent, 24% of the Moon is Illuminated
Aug 12
Waning Crescent
Aug 17
New
Aug 24
First Quarter
Aug 31
Full
Sep 8
Last Quarter

Hourly Weather History & Observations

Time (CDT) Temp. Heat Index Dew Point Humidity Pressure Visibility Wind Dir Wind Speed Gust Speed Precip Events Conditions
12:56 AM 69.1 °F - 66.9 °F 93% 29.96 in 9.0 mi Calm Calm - N/A   Clear
1:56 AM 69.1 °F - 66.0 °F 90% 29.96 in 10.0 mi Calm Calm - N/A   Clear
2:56 AM 68.0 °F - 66.0 °F 93% 29.97 in 8.0 mi Calm Calm - N/A   Clear
3:56 AM 66.9 °F - 64.9 °F 93% 29.98 in 7.0 mi Calm Calm - N/A   Clear
4:56 AM 64.9 °F - 63.0 °F 93% 29.98 in 7.0 mi North 3.5 mph - N/A   Clear
5:56 AM 64.9 °F - 63.0 °F 93% 30.00 in 10.0 mi North 3.5 mph - N/A   Clear
6:56 AM 66.9 °F - 63.0 °F 87% 30.01 in 10.0 mi Calm Calm - N/A   Clear
7:56 AM 71.1 °F - 64.9 °F 81% 30.02 in 10.0 mi Calm Calm - N/A   Clear
8:56 AM 77.0 °F - 66.0 °F 69% 30.03 in 10.0 mi Calm Calm - N/A   Clear
9:56 AM 81.0 °F 82.7 °F 64.9 °F 58% 30.04 in 10.0 mi NNE 3.5 mph - N/A   Clear
10:56 AM 84.9 °F 85.4 °F 62.1 °F 46% 30.03 in 10.0 mi Variable 6.9 mph - N/A   Clear
11:56 AM 86.0 °F 85.4 °F 59.0 °F 40% 30.02 in 10.0 mi West 8.1 mph - N/A   Clear
12:56 PM 87.1 °F 86.5 °F 59.0 °F 39% 30.01 in 10.0 mi North 6.9 mph - N/A   Clear
1:56 PM 86.0 °F 85.4 °F 59.0 °F 40% 30.00 in 10.0 mi North 5.8 mph - N/A   Clear
2:56 PM 88.0 °F 87.9 °F 61.0 °F 40% 29.99 in 10.0 mi WNW 6.9 mph - N/A   Clear
3:56 PM 88.0 °F 87.6 °F 60.1 °F 39% 29.98 in 10.0 mi Calm Calm - N/A   Partly Cloudy
4:56 PM 87.1 °F 87.0 °F 61.0 °F 41% 29.99 in 10.0 mi NNE 3.5 mph - N/A   Clear
5:56 PM 86.0 °F 87.3 °F 64.0 °F 48% 29.99 in 10.0 mi NNE 3.5 mph - N/A   Scattered Clouds
6:56 PM 84.0 °F 86.5 °F 66.9 °F 56% 29.99 in 10.0 mi Calm Calm - N/A   Clear
7:56 PM 75.9 °F - 69.1 °F 79% 30.01 in 10.0 mi Calm Calm - N/A   Clear
8:56 PM 73.0 °F - 69.1 °F 87% 30.02 in 10.0 mi Calm Calm - N/A   Clear
9:56 PM 71.1 °F - 66.9 °F 87% 30.04 in 10.0 mi Calm Calm - N/A   Clear
10:56 PM 69.1 °F - 66.0 °F 90% 30.03 in 10.0 mi Calm Calm - N/A   Clear
11:56 PM 66.0 °F - 64.0 °F 93% 30.02 in 10.0 mi Calm Calm - N/A   Clear